Vorticity
9 10 10 12 8 7 7 8 8 9 8 7 8 8 8 9 10 12 14 12 11 12 10 7 6 6 5 3 2 1 2 3 5 5 5 5 7 8 6 -0 3 2 3 6 4
12 12 13 13 12 9 9 7 6 6 7 10 10 9 11 11 10 12 9 7 6 6 6 5 6 5 4 2 3 3 3 7 5 6 4 4 5 4 5 2 2 6 4 1 4
2 4 5 6 6 6 6 7 8 8 7 6 7 10 10 10 10 7 7 4 3 4 6 7 6 6 5 7 7 7 8 8 10 8 9 7 9 6 8 3 4 2 6 1 6
2 2 7 5 4 5 5 6 6 7 7 7 11 7 7 9 9 10 7 11 9 9 2 5 9 8 6 6 5 9 8 6 9 10 10 11 10 7 10 7 6 8 5 6 5
-0 3 3 6 3 4 5 7 9 7 8 7 7 8 8 10 6 7 7 6 7 4 4 6 8 10 15 16 15 15 11 12 10 8 9 9 9 10 8 6 8 5 9 2 4
0 1 3 0 3 2 5 8 7 8 9 8 11 9 9 5 9 5 -1 7 6 9 14 18 17 16 12 10 12 12 10 10 12 13 14 13 12 16 14 15 10 9 4 4 3
2 1 -1 3 1 2 3 7 7 13 9 5 7 7 7 8 3 7 10 9 18 16 13 6 8 8 10 8 6 7 10 14 9 10 11 7 9 14 13 12 11 10 13 13 13
7 4 -1 5 4 2 4 9 11 7 8 9 8 10 10 4 14 8 20 13 9 6 -0 4 4 8 7 16 18 14 12 11 20 16 13 16 17 21 28 28 23 25 16 13 10
6 4 3 5 3 3 8 13 10 8 8 9 10 10 7 13 13 11 6 6 -0 3 11 7 7 14 18 14 11 10 13 15 19 24 24 25 28 24 19 23 24 24 30 33 34
7 9 5 3 3 5 14 11 9 8 8 11 9 17 8 13 5 9 6 4 7 8 6 6 11 16 14 11 12 13 18 25 23 13 18 33 33 25 7 -3 -5 2 37 33 28
6 1 2 5 4 13 14 4 7 6 13 14 16 10 8 8 5 6 4 6 6 8 9 13 17 15 12 14 21 29 21 18 31 30 30 4 21 14 12 14 10 12 30 28 29
8 9 9 3 12 13 4 4 10 14 16 15 8 5 5 5 5 3 11 8 10 10 7 16 14 10 14 23 30 12 20 30 16 4 12 10 6 3 16 16 18 43 34 25 25
5 11 2 6 11 7 5 10 16 15 10 13 1 5 7 6 2 4 8 7 7 9 15 14 8 16 23 30 14 7 7 16 5 7 3 19 -8 37 13 20 12 40 27 22 22
10 11 5 10 8 6 10 15 13 11 8 -3 2 6 3 5 7 7 9 10 10 14 10 12 15 23 28 22 15 12 5 5 8 7 8 18 9 9 19 18 28 34 35 29 25
14 11 8 8 8 9 13 14 8 3 7 8 5 3 6 11 6 7 7 11 11 11 15 10 19 27 32 10 11 13 6 12 14 14 21 -5 19 -12 19 8 -4 18 28 29 44
12 6 7 9 7 14 15 10 7 7 8 5 4 9 12 10 6 11 10 10 6 11 8 12 26 29 28 8 14 8 12 4 11 -0 18 21 21 14 2 5 7 30 63 44 14
11 7 8 7 14 18 10 6 5 0 4 4 9 13 10 6 8 10 8 6 7 10 13 19 20 28 20 1 17 7 5 14 12 7 15 2 14 2 17 7 19 5 16 -21 15
6 9 7 14 19 10 9 5 1 2 4 11 12 9 9 5 11 7 6 9 10 11 12 19 28 25 14 8 22 8 7 2 11 14 7 14 17 10 35 -30 20 30 -11 57 14
7 7 15 20 14 5 8 6 6 8 7 12 11 8 8 6 10 3 13 7 11 12 20 24 23 19 10 11 17 7 9 18 20 15 1 17 9 22 -2 9 -6 4 29 -4 32
7 13 24 12 5 5 5 7 7 4 13 11 10 6 5 6 9 7 8 7 13 13 17 19 16 18 13 11 5 12 13 -1 13 16 9 16 13 9 9 5 2 20 -38 1 32
17 17 11 8 2 3 3 6 5 8 13 9 10 4 3 -1 12 7 6 7 13 13 23 23 18 12 5 14 12 14 8 1 10 16 21 9 16 3 2 4 5 10 26 -17 -11
13 12 7 6 6 3 8 4 7 14 10 10 9 4 6 3 11 6 4 11 14 12 22 20 14 9 6 12 12 13 8 11 3 17 8 3 11 24 -3 4 10 7 9 32 15
12 7 3 2 2 5 4 10 11 12 9 10 6 5 8 3 7 7 4 11 10 14 18 15 3 18 8 10 10 3 17 6 8 6 26 16 -5 15 19 8 11 8 10 9 2
8 4 4 3 7 6 13 10 12 7 9 9 9 5 10 3 3 5 4 10 11 15 26 16 8 12 18 9 6 7 12 16 5 7 7 18 10 5 10 9 8 8 10 12 9
3 1 3 7 8 12 9 9 9 8 9 8 8 6 10 3 2 3 5 9 12 13 20 17 7 12 24 5 10 5 16 17 8 8 6 4 12 10 10 7 7 10 14 18 2
1 -0 3 6 9 10 8 6 7 8 8 9 7 6 9 2 4 2 2 9 11 12 19 20 6 6 14 18 7 6 9 18 9 16 7 10 3 3 5 8 6 7 14 13 7
11 12 8 4 9 9 9 8 8 8 8 8 8 9 8 7 1 3 -3 10 8 13 12 25 21 3 14 15 13 9 5 16 10 7 12 9 9 5 7 5 2 0 2 5 8
Height
5820 5817 5814 5810 5807 5804 5801 5798 5795 5791 5788 5784 5781 5777 5774 5770 5769 5766 5765 5762 5759 5757 5755 5753 5751 5749 5747 5746 5744 5743 5741 5741 5739 5736 5736 5735 5739 5741 5742 5743 5744 5746 5749 5752 5754
5818 5815 5811 5808 5805 5801 5798 5795 5792 5788 5784 5780 5776 5772 5768 5765 5763 5761 5759 5756 5753 5750 5747 5744 5742 5740 5737 5735 5733 5730 5729 5727 5724 5723 5721 5721 5724 5727 5729 5729 5730 5733 5736 5741 5746
5817 5814 5810 5806 5803 5800 5797 5793 5789 5785 5780 5776 5772 5767 5763 5759 5757 5754 5751 5748 5745 5742 5739 5736 5733 5730 5726 5723 5720 5717 5715 5711 5709 5708 5706 5706 5707 5708 5711 5716 5716 5718 5720 5729 5734
5815 5813 5809 5805 5802 5798 5794 5790 5786 5782 5777 5773 5768 5763 5758 5754 5752 5747 5744 5741 5737 5734 5730 5726 5722 5718 5715 5711 5708 5704 5699 5695 5693 5690 5689 5688 5691 5691 5693 5698 5698 5701 5708 5714 5718
5814 5810 5807 5804 5799 5795 5791 5786 5782 5777 5772 5768 5763 5758 5753 5749 5745 5741 5737 5733 5728 5724 5720 5715 5710 5706 5702 5697 5693 5688 5684 5679 5675 5672 5669 5668 5672 5673 5675 5677 5678 5684 5689 5697 5703
5811 5807 5803 5800 5796 5791 5787 5782 5777 5772 5767 5762 5758 5752 5748 5744 5739 5734 5730 5724 5719 5714 5709 5704 5699 5693 5689 5683 5678 5672 5668 5663 5657 5653 5648 5647 5653 5649 5659 5649 5656 5660 5670 5675 5681
5807 5804 5799 5795 5791 5787 5782 5777 5772 5767 5762 5757 5752 5747 5742 5738 5731 5726 5721 5718 5712 5706 5700 5694 5689 5682 5676 5670 5663 5657 5653 5646 5639 5633 5627 5623 5634 5629 5629 5626 5631 5636 5644 5652 5660
5803 5800 5796 5791 5787 5782 5777 5772 5767 5761 5756 5750 5746 5740 5735 5729 5724 5719 5713 5708 5702 5697 5691 5684 5678 5671 5664 5657 5648 5641 5636 5630 5619 5613 5609 5604 5618 5609 5604 5600 5604 5608 5617 5625 5637
5800 5795 5791 5787 5782 5778 5772 5766 5761 5756 5750 5745 5739 5734 5729 5722 5717 5711 5706 5701 5696 5689 5683 5675 5667 5659 5650 5643 5636 5625 5622 5614 5608 5596 5594 5590 5595 5597 5588 5585 5587 5590 5594 5599 5608
5795 5790 5787 5783 5778 5773 5767 5762 5756 5750 5745 5739 5734 5729 5723 5717 5712 5706 5700 5694 5688 5681 5673 5664 5655 5645 5637 5628 5622 5615 5605 5601 5592 5589 5584 5583 5581 5582 5577 5573 5574 5574 5570 5574 5583
5791 5786 5782 5777 5773 5767 5762 5757 5753 5747 5739 5733 5728 5722 5717 5713 5707 5702 5695 5688 5680 5672 5662 5653 5642 5633 5624 5615 5606 5599 5594 5588 5584 5580 5578 5576 5575 5571 5567 5563 5560 5556 5553 5555 5562
5786 5782 5777 5772 5767 5761 5756 5750 5744 5739 5734 5728 5724 5719 5713 5707 5702 5695 5688 5682 5671 5662 5651 5641 5633 5622 5612 5604 5598 5593 5588 5583 5581 5577 5575 5571 5568 5564 5557 5551 5544 5536 5535 5539 5548
5781 5777 5772 5767 5761 5756 5749 5744 5738 5733 5730 5724 5720 5715 5710 5705 5697 5690 5681 5672 5662 5653 5643 5633 5623 5613 5604 5596 5593 5589 5585 5581 5578 5575 5571 5566 5561 5555 5549 5541 5534 5526 5525 5531 5540
5775 5771 5767 5762 5757 5750 5744 5738 5733 5729 5725 5722 5716 5710 5703 5696 5691 5681 5672 5664 5655 5647 5636 5627 5615 5605 5596 5591 5588 5586 5583 5579 5575 5571 5567 5561 5556 5550 5542 5535 5528 5523 5522 5527 5535
5770 5765 5760 5756 5751 5745 5739 5733 5728 5725 5722 5717 5711 5705 5698 5692 5683 5675 5667 5657 5647 5637 5629 5618 5607 5597 5590 5588 5585 5583 5580 5576 5572 5567 5562 5558 5553 5546 5540 5534 5526 5523 5522 5526 5535
5763 5759 5755 5749 5744 5738 5732 5728 5725 5722 5717 5713 5706 5699 5692 5686 5678 5669 5661 5651 5641 5629 5621 5611 5601 5593 5588 5585 5582 5581 5578 5575 5570 5566 5560 5555 5552 5546 5541 5535 5527 5524 5524 5532 5542
5757 5753 5748 5743 5738 5732 5728 5725 5723 5717 5713 5708 5701 5695 5688 5681 5673 5665 5657 5649 5640 5630 5615 5605 5597 5590 5587 5585 5580 5579 5576 5572 5569 5565 5561 5557 5553 5548 5544 5540 5537 5535 5539 5547 5553
5749 5746 5741 5736 5732 5728 5724 5721 5718 5713 5708 5702 5696 5690 5684 5676 5668 5659 5651 5642 5632 5621 5611 5601 5594 5589 5585 5583 5580 5578 5576 5572 5568 5565 5563 5557 5555 5550 5548 5546 5547 5550 5549 5556 5558
5743 5738 5735 5730 5726 5723 5720 5717 5712 5708 5703 5697 5691 5685 5679 5671 5663 5655 5646 5638 5628 5618 5609 5599 5593 5588 5585 5583 5581 5579 5577 5573 5570 5567 5564 5562 5557 5554 5553 5551 5551 5551 5554 5556 5558
5737 5732 5729 5725 5722 5719 5716 5712 5707 5702 5697 5691 5686 5681 5673 5666 5659 5650 5641 5634 5624 5615 5605 5598 5593 5590 5586 5583 5581 5578 5577 5575 5571 5569 5566 5565 5562 5558 5558 5555 5555 5557 5557 5558 5562
5730 5726 5723 5719 5716 5714 5711 5706 5702 5697 5692 5687 5681 5675 5669 5662 5655 5648 5640 5631 5622 5613 5605 5598 5594 5591 5587 5584 5581 5580 5577 5575 5573 5571 5568 5567 5566 5561 5561 5561 5562 5561 5562 5563 5563
5723 5720 5718 5715 5713 5708 5705 5701 5697 5692 5687 5682 5677 5671 5665 5659 5652 5644 5637 5628 5620 5612 5604 5599 5594 5590 5588 5584 5581 5579 5577 5575 5574 5573 5571 5569 5569 5565 5562 5563 5565 5567 5565 5567 5570
5717 5714 5711 5708 5706 5703 5698 5694 5691 5686 5682 5677 5672 5667 5660 5655 5650 5642 5635 5627 5618 5611 5604 5599 5595 5591 5588 5586 5582 5580 5578 5576 5574 5573 5571 5571 5571 5568 5567 5567 5568 5570 5570 5570 5573
5711 5708 5706 5702 5699 5696 5692 5688 5684 5681 5677 5672 5667 5662 5657 5651 5645 5639 5631 5625 5617 5609 5603 5598 5594 5590 5587 5585 5583 5580 5578 5576 5575 5575 5573 5572 5571 5571 5569 5568 5569 5571 5572 5573 5576
5704 5701 5697 5695 5692 5689 5685 5682 5678 5675 5671 5666 5662 5658 5653 5648 5642 5635 5628 5622 5615 5608 5602 5597 5594 5590 5586 5584 5582 5580 5578 5576 5575 5574 5574 5574 5573 5573 5572 5571 5572 5573 5574 5574 5577
5695 5693 5690 5688 5685 5681 5678 5674 5673 5669 5666 5661 5657 5653 5649 5644 5639 5633 5627 5620 5614 5607 5601 5596 5592 5589 5585 5582 5580 5579 5577 5576 5575 5574 5573 5574 5574 5574 5574 5573 5571 5573 5574 5575 5577
5686 5684 5682 5681 5677 5675 5672 5668 5665 5663 5661 5656 5652 5648 5644 5640 5635 5630 5623 5618 5612 5605 5599 5594 5590 5587 5583 5580 5578 5578 5576 5575 5574 5573 5573 5573 5573 5574 5574 5574 5574 5573 5574 5575 5578